User: anonymous
Location: Vancouver
(49.2500°N, 123.1330°W)
Time: 06:47:38
(UTC-07:00)
Language:

Cosmos 1408 Rocket - Orbit

View from above orbital plane
View from above orbital plane
View from above satellite
View from above satellite

Ground track
Ground track

The orbit data is extracted from the following two-line orbital elements,

1 13553U 82092B   14109.94448120  .00000851  00000-0  10032-3 0  8773
2 13553 082.5704 229.0759 0020443 255.7884 237.2775 14.83489331705864
Epoch (UTC): 19 April 2014 22:40:03
Eccentricity: 0.0020443
inclination: 82.5704°
perigee height: 604 km
apogee height: 632 km
right ascension of ascending node: 229.0759°
argument of perigee: 255.7884°
revolutions per day: 14.83489331
mean anomaly at epoch: 237.2775°
orbit number at epoch: 70586

The dashed part of the orbit path shows where the satellite is in the earth's shadow,  

DLR